Location: Belvedere Heights
(33.9836°N, 117.3109°W)
Time: 13:21:57
(UTC+00:00)

Atlas Centaur 2 - Pass Details

Date: 12 December 2023
Orbit: 458 x 1281 km, 30.4° (Epoch: 25 February)

Event Time Altitude Azimuth Distance (km) Brightness Sun altitude
Exits shadow 14:09:37 - 262° (W) 1,894 3.5 -7.5°
Reaches altitude 10° 14:10:23 10° 259° (W) 1,594 3.2 -7.3°
Maximum altitude 14:13:43 38° 189° (S) 709 2.0 -6.7°
Drops below altitude 10° 14:17:07 10° 120° (ESE) 1,633 5.6 -6.1°
Sets 14:19:29 0° 112° (ESE) 2,575 7.7 -5.6°
